Time,TemperatureF,DewpointF,PressureIn,WindDirection,WindDirectionDegrees,WindSpeedMPH,WindSpeedGustMPH,Humidity,HourlyPrecipIn,Conditions,Clouds,dailyrainin,SoftwareType,DateUTC
2013-03-25 00:00:00,41.0,38.9,29.99,ESE,112,0.0,-999.0,92,-99.99,,,0.00,Acu-Link.com,2013-03-25 07:00:00,
2013-03-25 00:15:00,40.8,38.7,29.99,SW,225,0.0,-999.0,92,-99.99,,,0.00,Acu-Link.com,2013-03-25 07:15:00,
2013-03-25 00:30:00,40.8,38.7,29.99,ESE,112,0.0,-999.0,92,-99.99,,,0.00,Acu-Link.com,2013-03-25 07:30:00,
2013-03-25 00:45:00,40.6,38.5,29.99,ESE,112,0.0,-999.0,92,-99.99,,,0.00,Acu-Link.com,2013-03-25 07:45:00,
2013-03-25 01:01:00,40.3,38.4,29.98,ESE,112,0.0,-999.0,93,-99.99,,,0.00,Acu-Link.com,2013-03-25 08:01:00,
2013-03-25 01:31:00,40.3,38.4,29.97,ESE,112,0.0,-999.0,93,-99.99,,,0.00,Acu-Link.com,2013-03-25 08:31:00,
2013-03-25 02:02:00,39.6,38.0,29.98,NNE,22,0.0,-999.0,94,-99.99,,,0.00,Acu-Link.com,2013-03-25 09:02:00,
2013-03-25 02:17:00,39.2,37.6,29.98,ESE,112,0.0,-999.0,94,-99.99,,,0.00,Acu-Link.com,2013-03-25 09:17:00,
2013-03-25 02:32:00,38.7,37.4,29.96,NE,45,0.0,-999.0,95,-99.99,,,0.00,Acu-Link.com,2013-03-25 09:32:00,
2013-03-25 02:47:00,38.3,37.0,29.96,ESE,112,0.0,-999.0,95,-99.99,,,0.00,Acu-Link.com,2013-03-25 09:47:00,
2013-03-25 03:03:00,37.6,36.3,29.96,ENE,67,0.0,-999.0,95,-99.99,,,0.00,Acu-Link.com,2013-03-25 10:03:00,
2013-03-25 03:18:00,37.2,35.9,29.95,NW,315,0.0,-999.0,95,-99.99,,,0.00,Acu-Link.com,2013-03-25 10:18:00,
2013-03-25 03:33:00,37.2,35.9,29.94,ESE,112,0.0,-999.0,95,-99.99,,,0.00,Acu-Link.com,2013-03-25 10:33:00,
2013-03-25 03:48:00,36.5,35.2,29.94,ESE,112,0.0,-999.0,95,-99.99,,,0.00,Acu-Link.com,2013-03-25 10:48:00,
2013-03-25 04:04:00,36.0,34.4,29.94,NNE,22,0.0,-999.0,94,-99.99,,,0.00,Acu-Link.com,2013-03-25 11:04:00,
2013-03-25 04:19:00,36.0,34.7,29.95,ESE,112,0.0,-999.0,95,-99.99,,,0.00,Acu-Link.com,2013-03-25 11:19:00,
2013-03-25 04:34:00,35.6,34.3,29.94,ESE,112,0.0,-999.0,95,-99.99,,,0.00,Acu-Link.com,2013-03-25 11:34:00,
2013-03-25 04:49:00,35.4,34.1,29.95,ESE,112,0.0,-999.0,95,-99.99,,,0.00,Acu-Link.com,2013-03-25 11:49:00,
2013-03-25 05:05:00,35.4,34.1,29.96,NE,45,0.0,-999.0,95,-99.99,,,0.00,Acu-Link.com,2013-03-25 12:05:00,
2013-03-25 05:20:00,35.2,33.9,29.96,West,270,0.0,-999.0,95,-99.99,,,0.00,Acu-Link.com,2013-03-25 12:20:00,
2013-03-25 05:35:00,34.7,33.4,29.95,East,90,0.0,-999.0,95,-99.99,,,0.00,Acu-Link.com,2013-03-25 12:35:00,
2013-03-25 05:51:00,34.5,33.2,29.96,ESE,112,0.0,-999.0,95,-99.99,,,0.00,Acu-Link.com,2013-03-25 12:51:00,
2013-03-25 06:21:00,34.0,32.7,29.93,West,270,0.0,-999.0,95,-99.99,,,0.00,Acu-Link.com,2013-03-25 13:21:00,
2013-03-25 06:36:00,34.3,33.0,29.93,ESE,112,0.0,-999.0,95,-99.99,,,0.00,Acu-Link.com,2013-03-25 13:36:00,
2013-03-25 06:52:00,34.7,33.9,29.93,ENE,67,0.0,-999.0,97,-99.99,,,0.00,Acu-Link.com,2013-03-25 13:52:00,
2013-03-25 07:07:00,35.4,34.9,29.93,WSW,247,0.0,-999.0,98,-99.99,,,0.00,Acu-Link.com,2013-03-25 14:07:00,
2013-03-25 07:22:00,35.8,35.3,29.94,East,90,0.0,-999.0,98,-99.99,,,0.00,Acu-Link.com,2013-03-25 14:22:00,
2013-03-25 07:38:00,35.8,35.3,29.94,NE,45,0.0,-999.0,98,-99.99,,,0.00,Acu-Link.com,2013-03-25 14:38:00,
2013-03-25 07:53:00,36.7,36.2,29.92,WNW,292,0.0,-999.0,98,-99.99,,,0.00,Acu-Link.com,2013-03-25 14:53:00,
2013-03-25 08:08:00,36.9,36.4,29.92,SW,225,0.0,-999.0,98,-99.99,,,0.00,Acu-Link.com,2013-03-25 15:08:00,
2013-03-25 08:24:00,37.6,37.1,29.92,SW,225,0.0,-999.0,98,-99.99,,,0.00,Acu-Link.com,2013-03-25 15:24:00,
2013-03-25 08:39:00,38.7,38.2,29.94,SW,225,0.0,-999.0,98,-99.99,,,0.00,Acu-Link.com,2013-03-25 15:39:00,
2013-03-25 08:54:00,39.6,38.3,29.93,SSE,157,0.0,-999.0,95,-99.99,,,0.00,Acu-Link.com,2013-03-25 15:54:00,
2013-03-25 09:09:00,40.3,38.4,29.92,WSW,247,0.0,-999.0,93,-99.99,,,0.00,Acu-Link.com,2013-03-25 16:09:00,
2013-03-25 09:24:00,41.9,39.7,29.94,SSE,157,0.0,-999.0,92,-99.99,,,0.00,Acu-Link.com,2013-03-25 16:24:00,
2013-03-25 09:40:00,42.8,40.1,29.92,WSW,247,1.1,-999.0,90,-99.99,,,0.00,Acu-Link.com,2013-03-25 16:40:00,
2013-03-25 09:55:00,44.2,40.6,29.93,West,270,2.2,-999.0,87,-99.99,,,0.00,Acu-Link.com,2013-03-25 16:55:00,
2013-03-25 10:10:00,44.8,40.9,29.92,SW,225,2.2,-999.0,86,-99.99,,,0.00,Acu-Link.com,2013-03-25 17:10:00,
2013-03-25 10:26:00,45.9,41.3,29.92,SW,225,2.2,-999.0,84,-99.99,,,0.00,Acu-Link.com,2013-03-25 17:26:00,
2013-03-25 11:12:00,48.6,42.4,29.94,SSE,157,3.2,-999.0,79,-99.99,,,0.00,Acu-Link.com,2013-03-25 18:12:00,
2013-03-25 11:27:00,49.5,42.9,29.92,NNW,337,3.2,-999.0,78,-99.99,,,0.00,Acu-Link.com,2013-03-25 18:27:00,
2013-03-25 11:42:00,50.0,43.1,29.90,SW,225,2.7,-999.0,77,-99.99,,,0.00,Acu-Link.com,2013-03-25 18:42:00,
2013-03-25 12:12:00,52.5,44.8,29.90,West,270,2.2,-999.0,75,-99.99,,,0.00,Acu-Link.com,2013-03-25 19:12:00,
2013-03-25 12:27:00,52.7,45.0,29.92,WSW,247,2.7,-999.0,75,-99.99,,,0.00,Acu-Link.com,2013-03-25 19:27:00,
2013-03-25 12:43:00,52.5,44.8,29.92,NE,45,4.2,-999.0,75,-99.99,,,0.00,Acu-Link.com,2013-03-25 19:43:00,
2013-03-25 12:58:00,53.2,44.0,29.89,WNW,292,4.7,-999.0,71,-99.99,,,0.00,Acu-Link.com,2013-03-25 19:58:00,
2013-03-25 13:13:00,52.2,43.4,29.90,SSW,202,2.7,-999.0,72,-99.99,,,0.00,Acu-Link.com,2013-03-25 20:13:00,
2013-03-25 13:28:00,52.9,44.5,29.89,WSW,247,2.2,-999.0,73,-99.99,,,0.00,Acu-Link.com,2013-03-25 20:28:00,
2013-03-25 13:44:00,52.3,43.9,29.88,West,270,2.7,-999.0,73,-99.99,,,0.00,Acu-Link.com,2013-03-25 20:44:00,
2013-03-25 13:59:00,52.3,43.9,29.89,WSW,247,5.3,-999.0,73,-99.99,,,0.00,Acu-Link.com,2013-03-25 20:59:00,
2013-03-25 14:14:00,53.1,44.7,29.90,South,180,5.3,-999.0,73,-99.99,,,0.00,Acu-Link.com,2013-03-25 21:14:00,
2013-03-25 14:29:00,52.9,44.1,29.89,West,270,2.7,-999.0,72,-99.99,,,0.00,Acu-Link.com,2013-03-25 21:29:00,
2013-03-25 14:44:00,53.6,45.5,29.88,NNE,22,3.2,-999.0,74,-99.99,,,0.00,Acu-Link.com,2013-03-25 21:44:00,
2013-03-25 14:59:00,54.0,45.5,29.89,NW,315,6.8,-999.0,73,-99.99,,,0.00,Acu-Link.com,2013-03-25 21:59:00,
2013-03-25 15:15:00,53.4,45.0,29.90,WNW,292,5.3,-999.0,73,-99.99,,,0.00,Acu-Link.com,2013-03-25 22:15:00,
2013-03-25 15:30:00,52.7,44.3,29.89,WSW,247,4.2,-999.0,73,-99.99,,,0.00,Acu-Link.com,2013-03-25 22:30:00,
2013-03-25 15:45:00,52.5,43.7,29.90,SW,225,3.7,-999.0,72,-99.99,,,0.00,Acu-Link.com,2013-03-25 22:45:00,
2013-03-25 16:00:00,51.8,44.1,29.90,NNW,337,4.2,-999.0,75,-99.99,,,0.00,Acu-Link.com,2013-03-25 23:00:00,
2013-03-25 16:46:00,50.5,43.9,29.89,SSW,202,5.8,-999.0,78,-99.99,,,0.00,Acu-Link.com,2013-03-25 23:46:00,
2013-03-25 17:02:00,50.7,44.1,29.91,West,270,3.7,-999.0,78,-99.99,,,0.00,Acu-Link.com,2013-03-26 00:02:00,
2013-03-25 17:17:00,50.4,44.1,29.91,North,0,3.7,-999.0,79,-99.99,,,0.00,Acu-Link.com,2013-03-26 00:17:00,
2013-03-25 18:02:00,49.1,44.5,29.89,SSW,202,2.7,-999.0,84,-99.99,,,0.00,Acu-Link.com,2013-03-26 01:02:00,
2013-03-25 18:18:00,49.1,44.8,29.90,SW,225,3.7,-999.0,85,-99.99,,,0.00,Acu-Link.com,2013-03-26 01:18:00,
2013-03-25 18:33:00,48.9,44.6,29.91,SSW,202,2.2,-999.0,85,-99.99,,,0.00,Acu-Link.com,2013-03-26 01:33:00,
2013-03-25 18:48:00,48.7,44.7,29.90,SW,225,3.7,-999.0,86,-99.99,,,0.00,Acu-Link.com,2013-03-26 01:48:00,
2013-03-25 19:03:00,48.4,44.4,29.91,WSW,247,3.2,-999.0,86,-99.99,,,0.00,Acu-Link.com,2013-03-26 02:03:00,
2013-03-25 19:19:00,48.2,44.5,29.90,SW,225,1.7,-999.0,87,-99.99,,,0.00,Acu-Link.com,2013-03-26 02:19:00,
2013-03-25 19:34:00,48.0,44.6,29.92,SW,225,0.0,-999.0,88,-99.99,,,0.00,Acu-Link.com,2013-03-26 02:34:00,
2013-03-25 19:49:00,47.7,44.0,29.91,SW,225,2.2,-999.0,87,-99.99,,,0.00,Acu-Link.com,2013-03-26 02:49:00,
2013-03-25 20:04:00,47.5,43.8,29.90,NW,315,0.0,-999.0,87,-99.99,,,0.00,Acu-Link.com,2013-03-26 03:04:00,
2013-03-25 20:20:00,47.1,43.7,29.93,SSW,202,2.7,-999.0,88,-99.99,,,0.00,Acu-Link.com,2013-03-26 03:20:00,
2013-03-25 20:35:00,47.1,43.7,29.91,ESE,112,0.0,-999.0,88,-99.99,,,0.00,Acu-Link.com,2013-03-26 03:35:00,
2013-03-25 20:50:00,46.9,43.8,29.91,SSW,202,0.0,-999.0,89,-99.99,,,0.00,Acu-Link.com,2013-03-26 03:50:00,
2013-03-25 21:06:00,46.6,43.8,29.93,NE,45,0.0,-999.0,90,-99.99,,,0.00,Acu-Link.com,2013-03-26 04:06:00,
2013-03-25 21:36:00,46.2,43.7,29.94,East,90,0.0,-999.0,91,-99.99,,,0.00,Acu-Link.com,2013-03-26 04:36:00,
2013-03-25 21:51:00,46.0,43.8,29.93,ESE,112,0.0,-999.0,92,-99.99,,,0.00,Acu-Link.com,2013-03-26 04:51:00,
2013-03-25 22:07:00,45.7,43.5,29.92,ESE,112,0.0,-999.0,92,-99.99,,,0.00,Acu-Link.com,2013-03-26 05:07:00,
2013-03-25 22:22:00,45.5,43.6,29.93,ESE,112,0.0,-999.0,93,-99.99,,,0.00,Acu-Link.com,2013-03-26 05:22:00,
2013-03-25 22:37:00,45.3,43.4,29.94,ESE,112,0.0,-999.0,93,-99.99,,,0.00,Acu-Link.com,2013-03-26 05:37:00,
2013-03-25 22:53:00,45.1,43.2,29.93,ESE,112,0.0,-999.0,93,-99.99,,,0.00,Acu-Link.com,2013-03-26 05:53:00,
2013-03-25 23:08:00,45.0,43.4,29.95,ENE,67,0.0,-999.0,94,-99.99,,,0.00,Acu-Link.com,2013-03-26 06:08:00,
2013-03-25 23:23:00,44.4,42.8,29.93,ESE,112,0.0,-999.0,94,-99.99,,,0.00,Acu-Link.com,2013-03-26 06:23:00,
2013-03-25 23:39:00,44.2,42.6,29.95,ESE,112,0.0,-999.0,94,-99.99,,,0.00,Acu-Link.com,2013-03-26 06:39:00,
2013-03-25 23:54:00,43.9,42.3,29.93,WSW,247,0.0,-999.0,94,-99.99,,,0.00,Acu-Link.com,2013-03-26 06:54:00,